WOLESCHKO Weather Reports


Display with metric or nautical units.
time (UTC)temp
F
wind
direction
speed
MPH
gust
MPH
rain 1hr
in
rain 24hr
in
rain mn
in
humidity
%
barometer
mb
20200923111329 71 157 2.0 3.0 0.00 0.03 0.00 60 1005.0
20200923110307 71 180 2.0 3.0 0.00 0.03 0.00 60 1005.0
20200923105242 70 270 1.0 3.0 0.00 0.03 0.00 61 1005.0
20200923104249 69 112 3.0 5.0 0.00 0.03 0.00 62 1005.0
20200923103242 69 67 2.0 5.0 0.00 0.03 0.00 62 1005.0
20200923102235 69 157 1.0 3.0 0.00 0.03 0.00 62 1005.0
20200923101247 69 90 2.0 4.0 0.00 0.03 0.00 63 1005.0
20200923100256 68 157 3.0 4.0 0.00 0.03 0.00 65 1005.0
20200923095316 68 157 3.0 3.0 0.00 0.03 0.00 66 1006.0
20200923094309 67 202 3.0 3.0 0.00 0.03 0.00 67 1006.0
20200923093244 67 157 1.0 3.0 0.00 0.03 0.00 68 1006.0
20200923092258 67 90 2.0 5.0 0.00 0.03 0.00 68 1006.0
20200923091232 66 247 1.0 5.0 0.00 0.03 0.00 69 1006.0
20200923090218 66 157 2.0 3.0 0.00 0.03 0.00 71 1006.0
20200923085153 65 135 3.0 5.0 0.00 0.03 0.00 72 1006.0
20200923084204 65 157 1.0 5.0 0.00 0.03 0.00 74 1006.0
20200923083201 64 157 2.0 4.0 0.00 0.03 0.00 74 1006.0
20200923082210 63 157 1.0 4.0 0.00 0.03 0.00 75 1006.0
20200923081209 62 67 1.0 3.0 0.00 0.03 0.00 78 1006.0
20200923080134 62 135 1.0 3.0 0.00 0.03 0.00 79 1006.0
20200923075135 62 135 1.0 3.0 0.00 0.03 0.00 80 1006.0
20200923074132 61 135 1.0 3.0 0.00 0.03 0.00 80 1006.0
20200923073150 60 112 1.0 3.0 0.00 0.03 0.00 81 1006.0
20200923072137 60 157 1.0 3.0 0.00 0.03 0.00 81 1006.0
20200923071144 59 157 3.0 3.0 0.00 0.03 0.00 82 1006.0
20200923070121 58 157 1.0 3.0 0.00 0.03 0.00 84 1006.0
20200923065143 58 112 1.0 3.0 0.00 0.03 0.00 86 1006.0
20200923064200 57 135 1.0 2.0 0.00 0.03 0.00 86 1006.0
20200923063213 56 112 1.0 1.0 0.00 0.03 0.00 86 1006.0
20200923062154 56 157 0.0 0.0 0.00 0.03 0.00 86 1006.0
20200923061148 55 157 0.0 0.0 0.00 0.03 0.00 86 1006.0
20200923060138 55 157 0.0 0.0 0.00 0.03 0.00 87 1006.0
20200923055134 54 157 0.0 0.0 0.00 0.03 0.00 87 1006.0
20200923054131 54 157 0.0 0.0 0.00 0.03 0.00 86 1006.0
20200923053150 53 157 0.0 0.0 0.00 0.03 0.00 86 1006.0
20200923052129 53 157 0.0 0.0 0.00 0.03 0.00 86 1006.0
20200923051117 53 157 0.0 0.0 0.00 0.03 0.00 86 1006.0
20200923050122 53 157 0.0 0.0 0.00 0.03 0.00 86 1006.0
20200923045129 53 157 0.0 3.0 0.00 0.03 0.00 84 1006.0
20200923044106 53 180 0.0 0.0 0.00 0.03 0.00 84 1006.0
20200923043032 53 180 0.0 0.0 0.00 0.03 0.00 84 1006.0
20200923042053 53 180 0.0 0.0 0.00 0.03 0.00 84 1006.0
20200923041110 53 180 0.0 0.0 0.00 0.03 0.00 84 1006.0
20200923040109 53 180 0.0 0.0 0.00 0.03 0.00 84 1006.0
20200923035111 53 180 0.0 0.0 0.00 0.03 0.00 84 1006.0
20200923034132 53 180 0.0 0.0 0.00 0.03 0.00 84 1006.0
20200923033138 53 180 0.0 0.0 0.00 0.03 0.00 83 1006.0
20200923032122 54 180 0.0 0.0 0.00 0.03 0.00 84 1006.0
20200923031047 54 180 0.0 0.0 0.00 0.03 0.00 83 1006.0
20200923030028 54 180 0.0 0.0 0.00 0.03 0.00 83 1006.0
20200923025029 54 180 0.0 0.0 0.00 0.03 0.00 83 1006.0
20200923024041 54 180 0.0 0.0 0.00 0.03 0.00 83 1006.0
20200923023020 54 180 0.0 0.0 0.00 0.03 0.00 83 1006.0
20200923021949 54 180 0.0 0.0 0.00 0.03 0.00 83 1006.0
20200923020937 54 180 0.0 0.0 0.00 0.03 0.00 83 1006.0
20200923015901 55 180 0.0 0.0 0.00 0.03 0.00 83 1006.0
20200923014836 55 180 0.0 0.0 0.00 0.03 0.00 82 1006.0
20200923013803 55 180 0.0 0.0 0.00 0.03 0.00 82 1006.0
20200923012808 55 180 0.0 0.0 0.00 0.03 0.00 83 1006.0
20200923011823 56 180 0.0 0.0 0.00 0.03 0.00 83 1006.0
20200923010818 56 180 0.0 0.0 0.00 0.03 0.00 82 1007.0
20200923005807 56 180 0.0 1.0 0.00 0.03 0.00 82 1007.0
20200923004822 56 180 0.0 0.0 0.00 0.03 0.00 82 1007.0
20200923003832 56 180 0.0 0.0 0.00 0.03 0.00 82 1007.0
20200923002825 56 180 0.0 0.0 0.00 0.03 0.00 81 1007.0
20200923001800 56 157 0.0 0.0 0.00 0.03 0.00 81 1007.0
20200923000812 56 157 0.0 0.0 0.00 0.03 0.00 81 1007.0
20200922235808 56 202 0.0 0.0 0.00 0.03 0.00 81 1007.0
20200922234802 56 202 0.0 0.0 0.00 0.03 0.00 80 1007.0
20200922233734 56 202 0.0 0.0 0.00 0.03 0.00 80 1008.0
20200922232738 57 202 0.0 0.0 0.00 0.03 0.00 80 1008.0
20200922231715 57 202 0.0 0.0 0.00 0.03 0.00 80 1007.0
20200922230731 57 202 0.0 0.0 0.00 0.03 0.00 80 1007.0
20200922225712 58 202 0.0 0.0 0.00 0.03 0.00 79 1007.0
20200922224720 58 202 0.0 0.0 0.00 0.03 0.00 79 1006.0
20200922223640 58 202 0.0 0.0 0.00 0.03 0.00 78 1006.0
20200922222639 59 202 0.0 0.0 0.00 0.03 0.00 78 1006.0
20200922221622 59 202 0.0 0.0 0.00 0.03 0.00 76 1006.0
20200922220629 59 202 0.0 0.0 0.00 0.03 0.00 76 1007.0
20200922215625 59 202 0.0 0.0 0.00 0.03 0.03 76 1007.0
20200922214631 59 202 0.0 0.0 0.00 0.03 0.03 76 1007.0
20200922213635 59 202 0.0 0.0 0.00 0.03 0.03 76 1007.0
20200922212614 59 202 0.0 0.0 0.00 0.03 0.03 76 1007.0
20200922211601 60 157 0.0 0.0 0.00 0.03 0.03 76 1007.0
20200922210613 60 157 0.0 0.0 0.00 0.03 0.03 75 1007.0
20200922205600 60 157 0.0 0.0 0.00 0.03 0.03 75 1007.0
20200922204554 60 157 0.0 0.0 0.00 0.03 0.03 75 1007.0
20200922203537 60 157 0.0 0.0 0.00 0.07 0.03 74 1007.0
20200922202550 61 157 0.0 0.0 0.00 0.07 0.03 74 1007.0
20200922201550 61 157 0.0 0.0 0.00 0.07 0.03 74 1007.0
20200922200604 61 157 0.0 0.0 0.00 0.07 0.03 73 1008.0
20200922195528 61 135 0.0 0.0 0.00 0.07 0.03 73 1008.0
20200922194518 62 157 0.0 0.0 0.00 0.07 0.03 73 1008.0
20200922193526 62 157 0.0 0.0 0.00 0.07 0.03 73 1008.0
20200922192458 62 157 0.0 0.0 0.00 0.07 0.03 72 1008.0
20200922191513 62 157 0.0 0.0 0.00 0.07 0.03 72 1008.0
20200922190512 62 157 0.0 0.0 0.00 0.07 0.03 72 1008.0
20200922185440 62 157 0.0 1.0 0.00 0.07 0.03 71 1008.0
20200922184417 63 180 0.0 0.0 0.00 0.07 0.03 70 1008.0
20200922183440 63 180 0.0 0.0 0.00 0.07 0.00 69 1008.0
20200922182440 64 180 0.0 0.0 0.00 0.07 0.00 69 1008.0
20200922181449 64 180 0.0 0.0 0.00 0.07 0.00 68 1008.0
20200922180433 64 180 0.0 0.0 0.00 0.07 0.00 67 1008.0
20200922175447 65 157 0.0 0.0 0.00 0.07 0.00 67 1009.0
20200922174512 65 157 0.0 0.0 0.00 0.07 0.00 66 1009.0
20200922173453 65 157 0.0 0.0 0.00 0.07 0.00 65 1008.0
20200922172451 66 157 0.0 0.0 0.00 0.07 0.00 65 1008.0
20200922171457 66 157 0.0 0.0 0.00 0.07 0.00 63 1008.0
20200922170455 67 157 0.0 0.0 0.00 0.07 0.00 62 1008.0
20200922165512 67 157 0.0 0.0 0.00 0.07 0.00 62 1008.0
20200922164512 68 157 0.0 0.0 0.00 0.07 0.00 61 1008.0
20200922163519 68 157 0.0 0.0 0.00 0.07 0.00 60 1009.0
20200922162525 69 157 0.0 1.0 0.00 0.07 0.00 59 1009.0
20200922161509 69 157 0.0 0.0 0.00 0.07 0.00 58 1009.0
20200922160519 70 135 0.0 0.0 0.00 0.07 0.00 58 1009.0
20200922155454 71 157 0.0 1.0 0.00 0.07 0.00 56 1009.0
20200922154518 71 157 1.0 1.0 0.00 0.07 0.00 55 1009.0
20200922153504 72 157 1.0 4.0 0.00 0.07 0.00 54 1009.0
20200922152509 72 225 2.0 4.0 0.00 0.07 0.00 54 1009.0
20200922151519 72 157 1.0 3.0 0.00 0.07 0.00 53 1009.0
20200922150521 72 157 1.0 3.0 0.00 0.07 0.00 53 1008.0
20200922145508 73 180 1.0 1.0 0.00 0.07 0.00 53 1008.0
20200922144454 73 157 1.0 3.0 0.00 0.07 0.00 52 1009.0
20200922143445 73 135 1.0 3.0 0.00 0.07 0.00 52 1009.0
20200922142432 73 157 0.0 3.0 0.00 0.07 0.00 52 1010.0
20200922141404 74 112 3.0 4.0 0.00 0.07 0.00 50 1010.0
20200922140412 74 112 3.0 4.0 0.00 0.07 0.00 50 1010.0
20200922135336 74 292 0.0 3.0 0.00 0.07 0.00 50 1010.0
20200922134353 73 292 0.0 3.0 0.00 0.07 0.00 50 1010.0
20200922133318 73 157 1.0 4.0 0.00 0.07 0.00 51 1010.0
20200922132323 73 157 3.0 4.0 0.00 0.07 0.00 52 1010.0
20200922131330 73 135 4.0 4.0 0.00 0.07 0.00 53 1010.0
20200922130318 73 315 0.0 4.0 0.00 0.07 0.00 53 1011.0
20200922125306 73 135 1.0 2.0 0.00 0.07 0.00 53 1011.0
20200922124237 73 225 0.0 3.0 0.00 0.07 0.00 53 1011.0
20200922123241 73 225 1.0 3.0 0.00 0.07 0.00 53 1011.0
20200922122307 72 157 0.0 3.0 0.00 0.07 0.00 54 1011.0
20200922121300 71 270 1.0 1.0 0.00 0.07 0.00 55 1011.0
20200922120236 72 112 1.0 6.0 0.00 0.07 0.00 55 1010.0
20200922115253 71 112 3.0 6.0 0.00 0.07 0.00 56 1010.0
20200922114237 69 112 3.0 4.0 0.00 0.07 0.00 59 1010.0
20200922113248 69 157 0.0 3.0 0.00 0.07 0.00 59 1011.0
20200922112256 69 157 1.0 3.0 0.00 0.07 0.00 59 1011.0